Le nostre stazioni meteo in Italia

Pubblicità
Il mio iltempo24.it
Braemar, Gran Bretagna (99089): Temperatura & dewpoint: 18.06.2018 21:00:00 - 24.06.2018 21:00:00 (BST)Braemar, Gran Bretagna (99089): Temperatura -20cm & Temperatura -100cm: 18.06.2018 21:00:00 - 24.06.2018 21:00:00 (BST)Braemar, Gran Bretagna (99089): precipitazioni: 18.06.2018 21:00:00 - 24.06.2018 21:00:00 (BST)
Data & Tempo tt [°C] td [°C] tt -20cm [°C] tt -100cm [°C] rr [mm]
24.06.2018 21:00:00 - - - - -
24.06.2018 20:00:00 20,3 12,3 - - 0,0
24.06.2018 19:00:00 22,6 4,7 - - 0,0
24.06.2018 18:00:00 23,7 6,7 - - 0,0
24.06.2018 17:00:00 23,8 6,3 - - 0,0
24.06.2018 16:00:00 24,0 4,1 - - 0,0
24.06.2018 15:00:00 23,4 4,3 - - 0,0
24.06.2018 14:00:00 23,0 0,8 - - 0,0
24.06.2018 13:00:00 22,2 1,4 - - 0,0
24.06.2018 12:00:00 21,6 3,9 - - 0,0
24.06.2018 11:00:00 19,0 2,9 - - 0,0
24.06.2018 10:00:00 14,8 6,8 13,2 11,7 0,0
24.06.2018 09:00:00 12,2 8,6 - - 0,0
24.06.2018 08:00:00 10,8 8,5 - - 0,0
24.06.2018 07:00:00 9,1 8,1 - - 0,0
24.06.2018 06:00:00 7,6 6,8 - - 0,0
24.06.2018 05:00:00 6,7 6,0 - - 0,0
24.06.2018 04:00:00 6,8 6,1 - - 0,0
24.06.2018 03:00:00 7,3 6,4 - - 0,0
24.06.2018 02:00:00 8,0 7,1 - - 0,0
24.06.2018 01:00:00 8,5 7,1 - - 0,0
24.06.2018 00:00:00 9,6 7,5 - - 0,0
23.06.2018 23:00:00 11,9 8,6 - - 0,0
23.06.2018 22:00:00 12,9 8,8 - - 0,0
23.06.2018 21:00:00 14,6 9,5 - - 0,0
23.06.2018 20:00:00 15,1 9,5 - - 0,0
23.06.2018 19:00:00 15,0 9,4 - - 0,0
23.06.2018 18:00:00 15,4 9,0 - - 0,0
23.06.2018 17:00:00 16,8 9,5 - - 0,0
23.06.2018 16:00:00 17,7 9,7 - - 0,0
23.06.2018 15:00:00 18,6 9,8 - - 0,0
23.06.2018 14:00:00 18,1 6,0 - - 0,0
23.06.2018 13:00:00 16,1 6,1 - - 0,0
23.06.2018 12:00:00 14,6 5,8 - - 0,0
23.06.2018 11:00:00 13,8 5,8 - - 0,0
23.06.2018 10:00:00 12,8 5,5 12,5 11,7 0,0
23.06.2018 09:00:00 11,5 5,5 - - 0,0
23.06.2018 08:00:00 10,0 5,0 - - 0,0
23.06.2018 07:00:00 9,2 4,4 - - 0,0
23.06.2018 06:00:00 8,7 4,5 - - 0,0
23.06.2018 05:00:00 8,6 4,4 - - 0,0
23.06.2018 04:00:00 8,0 4,6 - - 0,0
23.06.2018 03:00:00 8,9 4,5 - - 0,0
23.06.2018 02:00:00 8,6 4,5 - - 0,0
23.06.2018 01:00:00 8,1 4,6 - - 0,0
23.06.2018 00:00:00 9,4 5,3 - - 0,0
22.06.2018 23:00:00 8,1 4,7 - - 0,0
22.06.2018 22:00:00 10,5 5,0 - - 0,0
22.06.2018 21:00:00 11,8 6,0 - - 0,0
22.06.2018 20:00:00 12,8 6,8 - - 0,0
22.06.2018 19:00:00 14,3 7,2 - - 0,0
22.06.2018 18:00:00 15,5 6,8 - - 0,0
22.06.2018 17:00:00 14,7 7,7 - - 0,0
22.06.2018 16:00:00 16,6 8,6 - - 0,0
22.06.2018 15:00:00 14,7 7,3 - - 0,0
22.06.2018 14:00:00 14,1 7,9 - - 0,0
22.06.2018 13:00:00 14,0 7,4 - - 0,0
22.06.2018 12:00:00 12,3 5,5 - - 0,0
22.06.2018 11:00:00 13,0 3,7 - - 0,0
22.06.2018 10:00:00 11,5 3,8 11,7 12,0 0,0
22.06.2018 09:00:00 11,6 3,1 - - 0,0
22.06.2018 08:00:00 10,2 2,7 - - 0,0
22.06.2018 07:00:00 8,8 2,5 - - 0,0
22.06.2018 06:00:00 7,8 2,3 - - 0,0
22.06.2018 05:00:00 7,8 2,2 - - 0,0
22.06.2018 04:00:00 7,7 2,2 - - 0,0
22.06.2018 03:00:00 8,1 1,5 - - 0,0
22.06.2018 02:00:00 8,5 2,0 - - 0,0
22.06.2018 01:00:00 8,4 2,4 - - 0,0
22.06.2018 00:00:00 8,7 2,3 - - 0,0
21.06.2018 23:00:00 8,3 2,0 - - 0,0
21.06.2018 22:00:00 7,5 2,0 - - 0,0
21.06.2018 21:00:00 10,3 2,0 - - 0,0
21.06.2018 20:00:00 12,1 2,4 - - 0,0
21.06.2018 19:00:00 12,3 2,9 - - 0,0
21.06.2018 18:00:00 12,9 3,6 - - 0,0
21.06.2018 17:00:00 12,7 3,0 - - 0,0
21.06.2018 16:00:00 12,3 1,5 - - 0,0
21.06.2018 15:00:00 11,8 0,9 - - 0,0
21.06.2018 14:00:00 10,8 2,4 - - 0,0
21.06.2018 13:00:00 10,3 2,7 - - 0,0
21.06.2018 12:00:00 10,5 3,1 - - 0,0
21.06.2018 11:00:00 9,4 3,9 - - 0,0
21.06.2018 10:00:00 9,0 2,1 12,7 12,0 0,0
21.06.2018 09:00:00 7,9 3,0 - - 0,0
21.06.2018 08:00:00 7,5 3,0 - - 0,0
21.06.2018 07:00:00 7,1 3,1 - - 0,0
21.06.2018 06:00:00 7,0 3,0 - - 0,0
21.06.2018 05:00:00 6,7 2,9 - - 0,0
21.06.2018 04:00:00 6,6 2,7 - - 0,0
21.06.2018 03:00:00 6,5 2,6 - - 0,0
21.06.2018 02:00:00 5,9 3,2 - - 0,0
21.06.2018 01:00:00 5,7 2,6 - - 0,4
21.06.2018 00:00:00 6,7 2,6 - - 0,0
20.06.2018 23:00:00 6,7 4,5 - - 0,2
20.06.2018 22:00:00 8,0 4,4 - - 0,0
20.06.2018 21:00:00 8,9 3,6 - - 0,0
20.06.2018 20:00:00 10,8 3,0 - - 0,0
20.06.2018 19:00:00 10,4 3,7 - - 0,0
20.06.2018 18:00:00 12,1 4,0 - - 0,0
20.06.2018 17:00:00 12,6 3,4 - - 0,0
20.06.2018 16:00:00 12,4 4,9 - - 0,0
20.06.2018 15:00:00 11,7 5,2 - - 0,0
20.06.2018 14:00:00 11,7 5,5 - - 0,0
20.06.2018 13:00:00 10,0 5,4 - - 0,0
20.06.2018 12:00:00 9,6 5,7 - - 0,0
20.06.2018 11:00:00 9,4 6,1 - - 0,0
20.06.2018 10:00:00 9,9 6,5 12,9 12,2 0,0
20.06.2018 09:00:00 9,3 6,8 - - 0,0
20.06.2018 08:00:00 8,7 7,1 - - 0,2
20.06.2018 07:00:00 7,3 6,9 - - 3,2
20.06.2018 06:00:00 7,3 6,8 - - 1,2
20.06.2018 05:00:00 7,1 6,7 - - 0,8
20.06.2018 04:00:00 7,2 6,8 - - 0,6
20.06.2018 03:00:00 7,3 6,7 - - 0,2
20.06.2018 02:00:00 7,6 7,1 - - 0,8
20.06.2018 01:00:00 7,5 7,1 - - 1,6
20.06.2018 00:00:00 7,6 7,1 - - 1,0
19.06.2018 23:00:00 7,8 7,1 - - 1,2
19.06.2018 22:00:00 8,4 6,6 - - 0,6
19.06.2018 21:00:00 9,7 6,7 - - 0,0
19.06.2018 20:00:00 11,1 3,2 - - 0,0
19.06.2018 19:00:00 12,4 3,7 - - 0,0
19.06.2018 18:00:00 13,0 3,8 - - 0,0
19.06.2018 17:00:00 12,7 4,2 - - 0,0
19.06.2018 16:00:00 12,8 5,3 - - 0,0
19.06.2018 15:00:00 13,3 4,4 - - 0,0
19.06.2018 14:00:00 14,0 4,0 - - 0,0
19.06.2018 13:00:00 12,2 2,8 - - 0,0
19.06.2018 12:00:00 11,8 4,2 - - 0,0
19.06.2018 11:00:00 11,4 3,9 - - 0,0
19.06.2018 10:00:00 10,6 3,2 12,9 12,2 0,0
19.06.2018 09:00:00 9,0 4,2 - - 0,0
19.06.2018 08:00:00 9,3 3,8 - - 0,0
19.06.2018 07:00:00 8,0 3,3 - - 0,0
19.06.2018 06:00:00 7,8 3,1 - - 0,0
19.06.2018 05:00:00 7,0 3,2 - - 0,0
19.06.2018 04:00:00 7,8 4,1 - - 0,0
19.06.2018 03:00:00 7,8 2,7 - - 0,0
19.06.2018 02:00:00 7,6 3,8 - - 0,0
19.06.2018 01:00:00 6,6 2,8 - - 0,0
19.06.2018 00:00:00 7,1 2,3 - - 0,0
18.06.2018 23:00:00 8,1 2,7 - - 0,0
18.06.2018 22:00:00 8,4 3,6 - - 0,0
18.06.2018 21:00:00 9,8 3,9 - - 0,0

tt = Temperatura
td = dewpoint
tt -20cm = Temperatura -20cm
tt -100cm = Temperatura -100cm
rr = precipitazioni

Stazioni seguenti

WeatherPro
AMSI
MeteoEarth